Terug naar catalogus

YAOGAN-39 04C

ActiefMilitairVLEO
NORAD 58145·PAYLOAD·🇨🇳 China

Gelanceerd Oct 23, 2023 vanaf Xichang Satellite Launch Center

Loading…

Volgende Passages (komende 24 uur)

TLE

VersSource: Space-Track

Epoch: Sep 14, 2026, 05:41 UTC

1 58145U 23163E   26257.23747609  .00003873  00000-0  19514-3 0  9992
2 58145  34.9904 173.7604 0002288 259.4216 100.6239 15.16642825160852

Volg YAOGAN-39 04C in realtime met AllMySat

Download on the App Store